GW1230 Weather Reports


time (UTC)temp
C
wind
direction
speed
KPH
gust
KPH
rain 1hr
cm
rain 24hr
cm
rain mn
cm
humidity
%
barometer
mb
20260831123449 13 4 3.2 3.2 0.00 0.00 0.00 93 1014.2
20260831122943 13 323 0.0 0.0 0.00 0.00 0.00 93 1014.2
20260831122439 13 333 1.6 1.6 0.00 0.00 0.00 93 1014.3
20260831121934 13 331 3.2 3.2 0.00 0.00 0.00 93 1014.2
20260831121430 13 325 1.6 1.6 0.00 0.00 0.00 93 1014.6
20260831120925 13 355 1.6 3.2 0.00 0.00 0.00 93 1014.5
20260831120420 13 342 4.8 4.8 0.00 0.00 0.00 92 1014.4
20260831115920 13 328 0.0 0.0 0.00 0.00 0.00 92 1014.3
20260831115416 13 15 4.8 4.8 0.00 0.00 0.00 92 1014.4
20260831114915 13 4 4.8 4.8 0.00 0.00 0.00 92 1014.6
20260831114414 13 30 4.8 8.0 0.00 0.00 0.00 92 1014.5
20260831113911 13 9 8.0 11.3 0.00 0.00 0.00 92 1014.7
20260831113410 13 320 1.6 1.6 0.00 0.00 0.00 92 1014.8
20260831112905 13 348 3.2 3.2 0.00 0.00 0.00 92 1014.8
20260831112400 13 358 8.0 11.3 0.00 0.00 0.00 92 1014.7
20260831111855 13 14 3.2 4.8 0.00 0.00 0.00 91 1014.7
20260831111351 13 337 1.6 3.2 0.00 0.00 0.00 91 1014.8
20260831110847 13 3 1.6 3.2 0.00 0.00 0.00 91 1015.0
20260831110346 13 6 1.6 3.2 0.00 0.00 0.00 91 1014.9
20260831105845 13 333 3.2 3.2 0.00 0.00 0.00 91 1014.8
20260831105341 13 355 1.6 4.8 0.00 0.00 0.00 91 1015.0
20260831104837 13 326 0.0 0.0 0.00 0.00 0.00 90 1015.0
20260831104333 13 358 6.4 8.0 0.00 0.00 0.00 91 1015.0
20260831103832 13 24 3.2 3.2 0.00 0.00 0.00 90 1014.9
20260831103328 13 336 0.0 0.0 0.00 0.00 0.00 90 1015.2
20260831102823 13 340 0.0 0.0 0.00 0.00 0.00 90 1015.0
20260831102318 13 346 0.0 0.0 0.00 0.00 0.00 90 1015.1
20260831101814 13 330 0.0 0.0 0.00 0.00 0.00 90 1014.8
20260831101309 13 1 0.0 0.0 0.00 0.00 0.00 90 1015.3
20260831100805 13 336 0.0 1.6 0.00 0.00 0.00 90 1015.6
20260831100301 13 329 1.6 1.6 0.00 0.00 0.00 89 1015.5
20260831095800 13 333 0.0 0.0 0.00 0.00 0.00 89 1015.6
20260831095254 13 337 0.0 0.0 0.00 0.00 0.00 89 1015.6
20260831094749 13 337 0.0 0.0 0.00 0.00 0.00 88 1015.5
20260831094244 13 342 1.6 3.2 0.00 0.00 0.00 88 1015.6
20260831093741 13 1 6.4 8.0 0.00 0.00 0.00 88 1015.5
20260831093240 13 5 1.6 3.2 0.00 0.00 0.00 88 1015.8
20260831092737 13 328 0.0 1.6 0.00 0.00 0.00 88 1015.9
20260831092233 13 323 1.6 3.2 0.00 0.00 0.00 88 1015.9
20260831091732 13 322 1.6 3.2 0.00 0.00 0.00 87 1015.8
20260831091228 13 305 0.0 0.0 0.00 0.00 0.00 87 1016.1
20260831090723 13 304 0.0 0.0 0.00 0.00 0.00 86 1015.9
20260831090220 13 305 0.0 0.0 0.00 0.00 0.00 86 1016.0
20260831085715 13 322 0.0 0.0 0.00 0.00 0.00 86 1015.8
20260831085210 14 321 0.0 0.0 0.00 0.00 0.00 85 1016.0
20260831084705 14 320 0.0 0.0 0.00 0.00 0.00 85 1016.0
20260831084201 13 321 0.0 1.6 0.00 0.00 0.00 85 1015.9
20260831083657 13 321 0.0 0.0 0.00 0.00 0.00 84 1015.8
20260831083152 13 322 0.0 0.0 0.00 0.00 0.00 84 1015.8
20260831082650 14 322 0.0 0.0 0.00 0.00 0.00 83 1016.3
20260831082146 14 342 0.0 0.0 0.00 0.00 0.00 83 1016.3
20260831081641 14 320 0.0 0.0 0.00 0.00 0.00 83 1016.3
20260831081137 14 322 0.0 0.0 0.00 0.00 0.00 83 1016.3
20260831080633 14 320 0.0 0.0 0.00 0.00 0.00 83 1016.6
20260831080127 14 331 0.0 0.0 0.00 0.00 0.00 83 1016.4
20260831075624 13 306 0.0 0.0 0.00 0.00 0.00 83 1016.6
20260831075119 13 306 0.0 0.0 0.00 0.00 0.00 83 1016.6
20260831074618 14 306 0.0 0.0 0.00 0.00 0.00 83 1016.4
20260831074113 14 306 0.0 0.0 0.00 0.00 0.00 82 1016.4
20260831073608 14 306 0.0 0.0 0.00 0.00 0.00 82 1016.3
20260831073107 14 306 0.0 1.6 0.00 0.00 0.00 82 1016.2
20260831072602 14 306 0.0 1.6 0.00 0.00 0.00 82 1016.4
20260831072059 14 307 0.0 0.0 0.00 0.00 0.00 81 1016.5
20260831071557 14 307 0.0 0.0 0.00 0.00 0.00 82 1016.5
20260831071053 15 307 0.0 0.0 0.00 0.00 0.00 81 1016.6
20260831070552 15 307 0.0 0.0 0.00 0.00 0.00 81 1016.8
20260831070047 15 308 0.0 0.0 0.00 0.00 0.00 81 1016.8
20260831065544 15 309 0.0 0.0 0.00 0.00 0.00 81 1016.9
20260831065039 15 310 0.0 0.0 0.00 0.00 0.00 81 1016.9
20260831064534 15 301 0.0 0.0 0.00 0.00 0.00 81 1016.8
20260831064030 15 300 0.0 0.0 0.00 0.00 0.00 80 1016.7
20260831063525 15 296 0.0 0.0 0.00 0.00 0.00 80 1016.8
20260831063020 15 281 0.0 0.0 0.00 0.00 0.00 79 1017.0
20260831062515 15 299 0.0 0.0 0.00 0.00 0.00 80 1016.8
20260831062014 15 270 1.6 1.6 0.00 0.00 0.00 80 1017.1
20260831061512 15 293 0.0 0.0 0.00 0.00 0.00 79 1016.7
20260831061009 15 287 0.0 0.0 0.00 0.00 0.00 79 1017.0
20260831060508 15 312 0.0 0.0 0.00 0.00 0.00 78 1016.9
20260831060004 15 316 0.0 0.0 0.00 0.00 0.00 78 1017.1
20260831055458 15 325 0.0 0.0 0.00 0.00 0.00 78 1016.9
20260831054954 15 317 0.0 0.0 0.00 0.00 0.00 77 1017.1
20260831054453 15 314 1.6 1.6 0.00 0.00 0.00 77 1017.1
20260831053953 15 338 0.0 0.0 0.00 0.00 0.00 77 1017.1
20260831053451 16 330 0.0 0.0 0.00 0.00 0.00 77 1017.2
20260831052946 15 318 4.8 4.8 0.00 0.00 0.00 77 1017.4
20260831052445 15 322 0.0 0.0 0.00 0.00 0.00 78 1017.5
20260831051944 15 344 1.6 1.6 0.00 0.00 0.00 78 1017.5
20260831051443 15 306 0.0 0.0 0.00 0.00 0.00 78 1017.8
20260831050937 15 320 0.0 0.0 0.00 0.00 0.00 78 1017.5
20260831050437 15 302 0.0 0.0 0.00 0.00 0.00 78 1017.7
20260831045936 15 284 0.0 0.0 0.00 0.00 0.00 77 1017.7
20260831045435 15 301 0.0 0.0 0.00 0.00 0.00 76 1017.5
20260831044930 16 300 0.0 0.0 0.00 0.00 0.00 76 1017.6
20260831044425 16 307 0.0 0.0 0.00 0.00 0.00 76 1017.7
20260831043921 16 341 0.0 0.0 0.00 0.00 0.00 76 1017.9
20260831043421 16 285 0.0 0.0 0.00 0.00 0.00 75 1017.8
20260831042916 16 318 0.0 0.0 0.00 0.00 0.00 75 1017.6
20260831042416 16 344 0.0 0.0 0.00 0.00 0.00 75 1017.7
20260831041911 16 325 1.6 1.6 0.00 0.00 0.00 75 1017.6
20260831041410 16 315 0.0 0.0 0.00 0.00 0.00 74 1017.7
20260831040905 16 351 1.6 3.2 0.00 0.00 0.00 74 1017.7
20260831040400 16 357 9.7 11.3 0.00 0.00 0.00 74 1017.6
20260831035858 16 345 1.6 1.6 0.00 0.00 0.00 74 1017.4
20260831035357 16 24 4.8 4.8 0.00 0.00 0.00 74 1017.7
20260831034851 16 350 0.0 0.0 0.00 0.00 0.00 74 1017.6
20260831034347 16 359 6.4 9.7 0.00 0.00 0.00 73 1017.5
20260831033842 16 15 8.0 9.7 0.00 0.00 0.00 73 1017.5
20260831033343 16 345 9.7 12.9 0.00 0.00 0.00 73 1017.7
20260831032838 16 11 9.7 11.3 0.00 0.00 0.00 72 1017.4
20260831032332 16 328 11.3 14.5 0.00 0.00 0.00 72 1017.4
20260831031827 16 7 9.7 11.3 0.00 0.00 0.00 72 1017.7
20260831031326 16 10 12.9 14.5 0.00 0.00 0.00 72 1017.9
20260831030821 16 345 6.4 9.7 0.00 0.00 0.00 71 1017.6
20260831030319 16 20 14.5 16.1 0.00 0.00 0.00 71 1017.4
20260831025814 17 350 0.0 0.0 0.00 0.00 0.00 70 1017.4
20260831025308 17 15 8.0 12.9 0.00 0.00 0.00 70 1017.6
20260831024804 17 32 8.0 11.3 0.00 0.00 0.00 70 1017.7
20260831024303 17 358 8.0 11.3 0.00 0.00 0.00 69 1017.6
20260831023802 17 345 8.0 11.3 0.00 0.00 0.00 68 1017.7
20260831023300 17 341 11.3 16.1 0.00 0.00 0.00 67 1017.4
20260831022756 17 317 0.0 0.0 0.00 0.00 0.00 66 1017.4
20260831022255 18 327 6.4 8.0 0.00 0.00 0.00 65 1017.5
20260831021750 18 5 4.8 9.7 0.00 0.00 0.00 64 1017.6
20260831021249 18 324 1.6 4.8 0.00 0.00 0.00 62 1017.8
20260831020746 19 326 0.0 0.0 0.00 0.00 0.00 61 1017.8
20260831020245 19 345 0.0 0.0 0.00 0.00 0.00 60 1017.7
20260831015741 19 319 0.0 0.0 0.00 0.00 0.00 59 1017.8
20260831015236 19 315 0.0 0.0 0.00 0.00 0.00 58 1017.6
20260831014731 20 337 4.8 4.8 0.00 0.00 0.00 58 1017.7
20260831014226 20 333 1.6 3.2 0.00 0.00 0.00 58 1017.8
20260831013722 20 346 1.6 4.8 0.00 0.00 0.00 58 1017.9
20260831013221 20 314 3.2 3.2 0.00 0.00 0.00 58 1017.8
20260831012716 20 328 6.4 8.0 0.00 0.00 0.00 57 1017.8
20260831012212 20 359 6.4 8.0 0.00 0.00 0.00 57 1018.0
20260831011710 20 355 6.4 9.7 0.00 0.00 0.00 56 1018.1
20260831011207 20 18 0.0 1.6 0.00 0.00 0.00 57 1018.2
20260831010702 20 306 0.0 0.0 0.00 0.00 0.00 57 1018.0
20260831010157 20 345 0.0 0.0 0.00 0.00 0.00 56 1018.1
20260831005657 20 306 1.6 3.2 0.00 0.00 0.00 56 1018.4
20260831005153 20 296 0.0 0.0 0.00 0.00 0.00 55 1018.2
20260831004648 20 249 3.2 3.2 0.00 0.00 0.00 54 1018.2
20260831004144 20 306 0.0 0.0 0.00 0.00 0.00 55 1018.3
20260831003640 20 307 0.0 1.6 0.00 0.00 0.00 54 1018.4
20260831003136 21 294 4.8 8.0 0.00 0.00 0.00 54 1018.6
20260831002634 20 256 0.0 0.0 0.00 0.00 0.00 55 1018.4
20260831002129 20 315 4.8 8.0 0.00 0.00 0.00 54 1018.4
20260831001625 21 297 3.2 3.2 0.00 0.00 0.00 53 1018.4
20260831001120 21 324 0.0 3.2 0.00 0.00 0.00 53 1018.5
20260831000618 21 273 0.0 0.0 0.00 0.00 0.00 55 1018.3
20260831000117 21 286 3.2 3.2 0.00 0.00 0.00 54 1018.4
20260830235616 22 328 1.6 3.2 0.00 0.00 0.00 53 1018.2
20260830235111 22 315 6.4 9.7 0.00 0.00 0.00 53 1018.4
20260830234606 22 293 6.4 8.0 0.00 0.00 0.00 52 1018.5
20260830234101 22 308 4.8 4.8 0.00 0.00 0.00 53 1018.6
20260830233556 23 276 8.0 11.3 0.00 0.00 0.00 51 1018.7
20260830233052 22 201 8.0 9.7 0.00 0.00 0.00 51 1018.6
20260830232548 23 294 0.0 1.6 0.00 0.00 0.00 52 1018.7
20260830232043 22 77 3.2 3.2 0.00 0.00 0.00 53 1018.7
20260830231539 21 333 1.6 1.6 0.00 0.00 0.00 55 1018.5
20260830231038 21 206 0.0 0.0 0.00 0.00 0.00 56 1018.5
20260830230534 20 175 3.2 3.2 0.00 0.00 0.00 58 1018.6
20260830230029 21 238 1.6 3.2 0.00 0.00 0.00 57 1018.6
20260830225524 21 256 0.0 1.6 0.00 0.00 0.00 54 1018.7
20260830225023 21 237 0.0 0.0 0.00 0.00 0.00 54 1018.7
20260830224521 21 317 0.0 0.0 0.00 0.00 0.00 56 1018.5
20260830224019 21 267 4.8 4.8 0.00 0.00 0.00 56 1019.0
20260830223516 21 244 1.6 4.8 0.00 0.00 0.00 58 1018.7
20260830223015 21 212 0.0 0.0 0.00 0.00 0.00 56 1019.1
20260830222510 21 227 8.0 9.7 0.00 0.00 0.00 57 1019.2
20260830222006 21 196 9.7 12.9 0.00 0.00 0.00 59 1019.3
20260830221502 21 201 3.2 3.2 0.00 0.00 0.00 57 1019.4
20260830220958 21 261 4.8 4.8 0.00 0.00 0.00 58 1019.5
20260830220457 21 261 14.5 16.1 0.00 0.00 0.00 58 1019.3
20260830215954 21 199 6.4 9.7 0.00 0.00 0.00 60 1019.3
20260830215450 20 238 1.6 3.2 0.00 0.00 0.00 61 1019.1
20260830214944 20 223 6.4 8.0 0.00 0.00 0.00 59 1019.2
20260830214440 21 186 12.9 16.1 0.00 0.00 0.00 60 1019.4
20260830213934 20 232 1.6 1.6 0.00 0.00 0.00 63 1019.2
20260830213429 20 223 0.0 0.0 0.00 0.00 0.00 63 1019.5
20260830212925 20 259 4.8 8.0 0.00 0.00 0.00 63 1019.6
20260830212420 20 200 0.0 1.6 0.00 0.00 0.00 64 1019.6
20260830211920 20 227 0.0 0.0 0.00 0.00 0.00 63 1019.5
20260830211414 20 290 6.4 9.7 0.00 0.00 0.00 63 1019.6
20260830210910 20 196 8.0 11.3 0.00 0.00 0.00 62 1019.7
20260830210410 20 301 4.8 4.8 0.00 0.00 0.00 64 1019.8
20260830205907 20 278 1.6 4.8 0.00 0.00 0.00 65 1019.6
20260830205406 20 249 4.8 8.0 0.00 0.00 0.00 64 1019.6
20260830204902 20 185 14.5 14.5 0.00 0.00 0.00 63 1020.0
20260830204401 20 256 8.0 11.3 0.00 0.00 0.00 65 1019.8
20260830203856 20 189 1.6 8.0 0.00 0.00 0.00 63 1019.8
20260830203353 20 248 8.0 9.7 0.00 0.00 0.00 63 1019.9
20260830202851 20 203 12.9 14.5 0.00 0.00 0.00 65 1019.9
20260830202347 20 201 0.0 0.0 0.00 0.00 0.00 64 1019.8
20260830201842 19 281 0.0 0.0 0.00 0.00 0.00 67 1020.3
20260830201336 18 185 4.8 9.7 0.00 0.00 0.00 70 1019.9
20260830200832 19 184 12.9 14.5 0.00 0.00 0.00 67 1020.0
20260830200331 18 282 3.2 4.8 0.00 0.00 0.00 70 1020.2
20260830195826 18 265 1.6 4.8 0.00 0.00 0.00 70 1020.3
20260830195321 18 191 8.0 11.3 0.00 0.00 0.00 68 1020.1
20260830194819 18 259 8.0 11.3 0.00 0.00 0.00 68 1020.1
20260830194318 19 263 4.8 4.8 0.00 0.00 0.00 69 1020.3
20260830193813 18 257 9.7 11.3 0.00 0.00 0.00 69 1020.3
20260830193307 18 252 8.0 12.9 0.00 0.00 0.00 70 1020.3
20260830192804 18 319 3.2 4.8 0.00 0.00 0.00 71 1020.3
20260830192305 17 219 1.6 3.2 0.00 0.00 0.00 72 1020.3
20260830191759 18 264 8.0 9.7 0.00 0.00 0.00 70 1020.3
20260830191258 18 235 9.7 14.5 0.00 0.00 0.00 71 1020.3
20260830190754 18 246 0.0 0.0 0.00 0.00 0.00 72 1020.3
20260830190249 17 201 6.4 8.0 0.00 0.00 0.00 72 1020.4
20260830185747 18 245 9.7 11.3 0.00 0.00 0.00 70 1020.4
20260830185244 17 253 3.2 3.2 0.00 0.00 0.00 72 1020.5
20260830184743 17 232 8.0 9.7 0.00 0.00 0.00 73 1020.6
20260830184242 17 245 9.7 12.9 0.00 0.00 0.00 74 1020.5
20260830183738 17 260 8.0 9.7 0.00 0.00 0.00 73 1020.5
20260830183232 17 259 4.8 8.0 0.00 0.00 0.00 74 1020.4
20260830182727 17 255 8.0 9.7 0.00 0.00 0.00 73 1020.6
20260830182224 17 189 8.0 9.7 0.00 0.00 0.00 72 1020.3
20260830181720 18 237 4.8 4.8 0.00 0.00 0.00 71 1020.2
20260830181215 18 151 4.8 4.8 0.00 0.00 0.00 69 1020.3
20260830180713 17 191 4.8 4.8 0.00 0.00 0.00 73 1020.4
20260830180208 17 327 1.6 1.6 0.00 0.00 0.00 73 1020.2
20260830175708 17 112 1.6 3.2 0.00 0.00 0.00 73 1020.3
20260830175203 17 219 1.6 3.2 0.00 0.00 0.00 76 1020.1
20260830174658 16 304 0.0 1.6 0.00 0.00 0.00 76 1020.3
20260830174154 16 296 0.0 0.0 0.00 0.00 0.00 78 1020.4
20260830173648 15 262 1.6 3.2 0.00 0.00 0.00 79 1020.2
20260830173143 15 302 6.4 8.0 0.00 0.00 0.00 80 1020.5
20260830172640 15 233 6.4 8.0 0.00 0.00 0.00 80 1020.6
20260830172136 15 267 3.2 3.2 0.00 0.00 0.00 79 1020.5
20260830171636 15 258 3.2 3.2 0.00 0.00 0.00 79 1020.4
20260830171131 16 256 6.4 9.7 0.00 0.00 0.00 78 1020.4
20260830170626 16 266 1.6 1.6 0.00 0.00 0.00 79 1020.4
20260830170125 16 246 3.2 3.2 0.00 0.00 0.00 78 1020.5
20260830165619 16 260 4.8 4.8 0.00 0.00 0.00 76 1020.2
20260830165115 16 274 0.0 0.0 0.00 0.00 0.00 78 1020.5
20260830164611 16 250 1.6 1.6 0.00 0.00 0.00 78 1020.3
20260830164107 16 248 4.8 8.0 0.00 0.00 0.00 78 1020.1
20260830163604 15 206 6.4 8.0 0.00 0.00 0.00 78 1020.4
20260830163103 16 217 4.8 4.8 0.00 0.00 0.00 76 1020.5
20260830162559 15 223 4.8 8.0 0.00 0.00 0.00 80 1020.5
20260830162054 15 203 4.8 4.8 0.00 0.00 0.00 79 1020.4
20260830161548 15 202 8.0 9.7 0.00 0.00 0.00 79 1020.5
20260830161044 15 221 4.8 4.8 0.00 0.00 0.00 79 1020.3
20260830160540 15 205 1.6 3.2 0.00 0.00 0.00 79 1020.4
20260830160035 15 212 6.4 8.0 0.00 0.00 0.00 79 1020.3
20260830155531 15 216 8.0 9.7 0.00 0.00 0.00 80 1020.4
20260830155026 15 198 9.7 11.3 0.00 0.00 0.00 80 1020.6
20260830154521 15 194 4.8 4.8 0.00 0.00 0.00 79 1020.3
20260830154017 15 194 6.4 8.0 0.00 0.00 0.00 81 1020.3
20260830153514 15 164 6.4 8.0 0.00 0.00 0.00 80 1020.3
20260830153013 15 158 8.0 9.7 0.00 0.00 0.00 79 1020.3
20260830152508 15 209 4.8 4.8 0.00 0.00 0.00 80 1020.2
20260830152007 15 182 8.0 9.7 0.00 0.00 0.00 81 1020.3
20260830151501 15 101 11.3 14.5 0.00 0.00 0.00 81 1020.3
20260830150956 15 203 4.8 8.0 0.00 0.00 0.00 81 1020.3
20260830150455 14 169 8.0 11.3 0.00 0.00 0.00 81 1020.2
20260830145950 14 193 8.0 11.3 0.00 0.00 0.00 82 1020.5
20260830145444 14 201 6.4 8.0 0.00 0.00 0.00 81 1020.2
20260830144940 14 170 3.2 3.2 0.00 0.00 0.00 82 1020.4
20260830144436 14 183 11.3 12.9 0.00 0.00 0.00 83 1019.9
20260830143931 14 185 4.8 4.8 0.00 0.00 0.00 83 1020.4
20260830143426 14 155 4.8 8.0 0.00 0.00 0.00 83 1020.4
20260830142925 13 152 6.4 8.0 0.00 0.00 0.00 84 1020.2
20260830142420 13 182 12.9 14.5 0.00 0.00 0.00 84 1020.4
20260830141914 13 143 8.0 9.7 0.00 0.00 0.00 84 1020.0
20260830141410 13 108 8.0 9.7 0.00 0.00 0.00 84 1020.1
20260830140905 13 143 4.8 8.0 0.00 0.00 0.00 84 1019.9
20260830140400 13 179 4.8 4.8 0.00 0.00 0.00 85 1020.1
20260830135859 13 207 1.6 1.6 0.00 0.00 0.00 85 1020.0
20260830135354 13 204 6.4 11.3 0.00 0.00 0.00 85 1019.9
20260830134850 13 166 3.2 4.8 0.00 0.00 0.00 85 1020.0
20260830134345 13 206 8.0 9.7 0.00 0.00 0.00 85 1019.9
20260830133841 13 97 6.4 8.0 0.00 0.00 0.00 85 1020.0
20260830133337 13 171 3.2 4.8 0.00 0.00 0.00 85 1019.9
20260830132832 13 194 4.8 4.8 0.00 0.00 0.00 86 1019.7
20260830132328 13 201 3.2 3.2 0.00 0.00 0.00 86 1020.0
20260830131827 13 153 6.4 9.7 0.00 0.00 0.00 86 1019.9
20260830131321 13 162 8.0 9.7 0.00 0.00 0.00 86 1019.6
20260830130816 13 121 8.0 11.3 0.00 0.00 0.00 86 1019.8
20260830130312 13 196 8.0 11.3 0.00 0.00 0.00 86 1019.7
20260830125810 13 192 1.6 1.6 0.00 0.00 0.00 86 1019.8
20260830125307 13 206 9.7 11.3 0.00 0.00 0.00 86 1019.8
20260830124803 13 136 3.2 3.2 0.00 0.00 0.00 86 1019.8
20260830124259 13 120 4.8 4.8 0.00 0.00 0.00 86 1019.8
20260830123756 13 152 1.6 1.6 0.00 0.00 0.00 86 1020.0